Weather History for Bakersfield, CA

Change the Weather History Date:

Saturday, September 14, 2013

  Actual Average Record
Temperature  
Mean Temperature 84 °F 78 °F  
Max Temperature 96 °F 91 °F 105 °F (1945)
Min Temperature 71 °F 65 °F 45 °F (1915)
Degree Days  
Heating Degree Days 0    
Month to date heating degree days 0  
Since 1 July heating degree days 0  
Cooling Degree Days 19    
Month to date cooling degree days 253  
Year to date cooling degree days 2367  
Growing Degree Days 34 (Base 50)    
Moisture  
Dew Point 54 °F    
Average Humidity 40    
Maximum Humidity 53    
Minimum Humidity 26    
Precipitation  
Precipitation 0.00 in 0.00 in 0.01 in (2009)
Month to date precipitation T 0.02  
Year to date precipitation 2.36 4.45  
Since 1 July precipitation T 0.06  
Snow  
Snow 0.00 in - - ()
Month to date snowfall 0.0  
Since 1 July snowfall 0.0  
Since 1 September snowfall 0.0  
Snow Depth 0.00 in    
Sea Level Pressure  
Sea Level Pressure 29.69 in    
Wind  
Wind Speed 4 mph (NNW)    
Max Wind Speed 12 mph    
Max Gust Speed 15 mph    
Visibility 10 miles    
Events      
T = Trace of Precipitation, MM = Missing Value Source: NWS Daily Summary

Daily Weather History Graph

Daily Weather History Graph

Search for Another Location

Airport:

Trip Planner

Search our weather history database for the weather conditions in past years. The results will help you decide how hot, cold, wet, or windy it might be!

Date:

Astronomy

Sep. 14, 2013 Rise Set
Actual Time 6:38 AM PDT 7:04 PM PDT
Civil Twilight 6:12 AM PDT 7:29 PM PDT
Nautical Twilight 5:42 AM PDT 7:59 PM PDT
Astronomical Twilight 5:12 AM PDT 8:30 PM PDT
Moon 3:41 PM PDT (9/14) 1:24 AM PDT (9/14)
Length of Visible Light 13h 16m
Length of Day
12h 25m
Waxing Gibbous, 73% of the Moon is Illuminated
Sep 14
Waxing Gibbous
Sep 19
Full
Sep 26
Last Quarter
Oct 4
New
Oct 11
First Quarter

Hourly Weather History & Observations

Time (PDT) Temp. Heat Index Dew Point Humidity Pressure Visibility Wind Dir Wind Speed Gust Speed Precip Events Conditions
12:54 AM 75.9 °F - 51.1 °F 42% 29.72 in 10.0 mi Calm Calm - N/A   Clear
1:54 AM 78.1 °F - 52.0 °F 40% 29.71 in 10.0 mi Calm Calm - N/A   Clear
2:54 AM 73.9 °F - 51.1 °F 45% 29.70 in 10.0 mi Calm Calm - N/A   Clear
3:54 AM 75.0 °F - 52.0 °F 44% 29.70 in 10.0 mi Calm Calm - N/A   Clear
4:54 AM 73.0 °F - 52.0 °F 48% 29.71 in 10.0 mi Calm Calm - N/A   Clear
5:54 AM 73.0 °F - 52.0 °F 48% 29.71 in 10.0 mi Calm Calm - N/A   Clear
6:54 AM 71.1 °F - 51.1 °F 49% 29.73 in 10.0 mi NE 3.5 mph - N/A   Clear
7:54 AM 73.9 °F - 55.0 °F 52% 29.74 in 10.0 mi SSE 5.8 mph - N/A   Clear
8:54 AM 77.0 °F - 54.0 °F 45% 29.74 in 10.0 mi SE 6.9 mph - N/A   Clear
9:54 AM 81.0 °F 80.5 °F 54.0 °F 39% 29.74 in 10.0 mi Calm Calm - N/A   Clear
10:54 AM 86.0 °F 84.2 °F 54.0 °F 33% 29.74 in 10.0 mi Calm Calm - N/A   Clear
11:54 AM 89.1 °F 86.9 °F 54.0 °F 30% 29.72 in 10.0 mi Variable 4.6 mph - N/A   Clear
12:54 PM 91.0 °F 88.7 °F 54.0 °F 28% 29.70 in 10.0 mi Variable 4.6 mph - N/A   Clear
1:54 PM 93.9 °F 91.7 °F 54.0 °F 26% 29.67 in 10.0 mi WNW 8.1 mph - N/A   Clear
2:54 PM 93.9 °F 92.0 °F 55.0 °F 27% 29.65 in 10.0 mi NW 8.1 mph - N/A   Clear
3:54 PM 95.0 °F 93.4 °F 55.9 °F 27% 29.63 in 10.0 mi WNW 9.2 mph - N/A   Clear
4:54 PM 93.9 °F 92.0 °F 55.0 °F 27% 29.63 in 10.0 mi WNW 8.1 mph - N/A   Clear
5:54 PM 93.9 °F 92.2 °F 55.9 °F 28% 29.63 in 10.0 mi WNW 8.1 mph - N/A   Clear
6:54 PM 91.0 °F 89.7 °F 57.0 °F 32% 29.64 in 10.0 mi NW 5.8 mph - N/A   Clear
7:54 PM 89.1 °F 87.3 °F 55.9 °F 32% 29.65 in 10.0 mi NNE 3.5 mph - N/A   Clear
8:54 PM 87.1 °F 85.1 °F 54.0 °F 32% 29.67 in 10.0 mi NNE 3.5 mph - N/A   Clear
9:54 PM 84.0 °F 82.5 °F 53.1 °F 34% 29.68 in 10.0 mi Calm Calm - N/A   Clear
10:54 PM 82.9 °F 82.0 °F 55.0 °F 38% 29.68 in 10.0 mi NE 5.8 mph - N/A   Clear
11:54 PM 82.0 °F 81.6 °F 55.9 °F 41% 29.69 in 10.0 mi Calm Calm - N/A   Clear